Location: Newark
(48.1500°N, 2.9667°W)
Time: 14:56:28
(UTC+00:00)

Altair - Pass Details

Date: 30 January 2020
Orbit: 1502 x 1682 km, 47.2° (Epoch: 24 February)

Event Time Altitude Azimuth Distance (km) Brightness Sun altitude
Rises 07:42:38 0° 230° (SW) 4,842 9.9 -0.9°
Reaches altitude 10° 07:45:47 10° 227° (SW) 3,878 9.4 -0.5°
Maximum altitude 07:55:29 60° 151° (SSE) 1,880 8.4 1.0°
Drops below altitude 10° 08:05:23 10° 76° (ENE) 3,949 10.4 2.4°
Sets 08:08:37 0° 73° (ENE) 4,935 10.8 2.9°
